Regional Weather Roundup
Issued by NWS Albany, NY

Home | Current Version | Previous Version | Text Only | Print | Product List | Glossary On
Versions: 1 2 3 4 5 6 7 8 9 10 11 12 13 14 15 16 17 18 19 20 21 22 23 24 25 26 27 28
000
ASUS41 KALY 040010
RWRALY

NEW YORK STATE HOURLY WEATHER ROUNDUP
NATIONAL WEATHER SERVICE ALBANY NY
700 PM EST SAT DEC 03 2016

NOTE: "FAIR" INDICATES FEW OR NO CLOUDS BELOW 12,000 FEET WITH NO
SIGNIFICANT WEATHER AND/OR NO OBSTRUCTIONS TO VISIBILITY.

NYZ032-033-038>043-046>054-057>066-NYZ062>081-082-084-040100-
EAST


CITY           SKY/WX    TMP DP  RH WIND       PRES   REMARKS
ALBANY         FLURRIES  36  27  69 NW16G23   30.12S WCI  26
GLENS FALLS    CLOUDY    37  22  54 SW3       30.12R
POUGHKEEPSIE   PTCLDY    39  26  59 NW7       30.10R WCI  34
NEWBURGH       MOCLDY    39  28  65 NW12      30.11R WCI  32
MONTGOMERY     MOCLDY    40  30  67 NW8       30.10S WCI  34
WHITE PLAINS   CLEAR     41  28  60 NW18      30.07S
ISLIP          PTCLDY    42  27  55 NW13      30.08R
NEW YORK CITY  MOCLDY    46  31  55 NW13      30.11R
CENTRAL PARK   PTCLDY    44  27  51 NW6       30.13S
$$

NYZ005>009-017-018-044>046-055-056-040100-
CENTRAL


CITY           SKY/WX    TMP DP  RH WIND       PRES   REMARKS
FULTON         CLOUDY    38  27  64 NW16G23   30.18R WCI  29
SYRACUSE       FLURRIES  36  28  73 NW10      30.17R WCI  28
ROME           CLOUDY    34  32  92 NW6       30.17R WCI  29
ELMIRA         CLOUDY    40  24  53 N9G20     30.17S WCI  34
BINGHAMTON     CLOUDY    32  28  85 NW9       30.12R WCI  24
MONTICELLO     CLOUDY    34  28  80 NW17G24   30.09S WCI  23
$$

NYZ026>034-041>043-087-040100-
NORTH


CITY           SKY/WX    TMP DP  RH WIND       PRES   REMARKS
WATERTOWN      CLOUDY    35  23  61 NW7       30.17S WCI  29
FORT DRUM      NOT AVBL
OGDENSBURG     CLOUDY    35  27  74 NW9       30.16R WCI  27
MASSENA        CLOUDY    35  19  52 NW12      30.16R WCI  27
SARANAC LAKE   FLURRIES  27  23  85 VRB3      30.05R
PLATTSBURGH    CLOUDY    34  22  61 NW7       30.10R WCI  28
$$

NYZ001>004-010>016-019>021-085-040100-
WEST


CITY           SKY/WX    TMP DP  RH WIND       PRES   REMARKS
NIAGARA FALLS  CLOUDY    40  28  62 W9        30.22F WCI  34
BUFFALO        CLOUDY    39  27  62 W8        30.22S WCI  33
DUNKIRK        CLOUDY    40  32  73 NW13      30.25S WCI  32
JAMESTOWN        N/A    N/A N/A N/A NW9       30.19F
WELLSVILLE     CLOUDY    34  29  82 NW10      30.17R WCI  26
ROCHESTER      CLOUDY    39  28  64 NW8       30.21R WCI  33
PENN YAN       CLOUDY    37  26  64 W5        30.19R WCI  33
$$

             KEY
       WCI = WIND CHILL INDEX
       VSB = VISIBILITY
       HX  = HEAT INDEX
$$




USA.gov is the U.S. government's official web portal to all federal, state and local government web resources and services.